2021-035B

Last updated on Fri Apr 30 2021 00:02:07 GMT+0000 (Coordinated Universal Time)

1 48275U 21035B 21119.61735435 .01105259 74456-5 42879-3 0 9992 2 48275 41.4763 220.7462 0151330 171.9220 188.4119 16.01390442 58

Satellite not in orbit